Year,Month,Day,Hour,Minute,Value (Times are PST for temperature in C)
2011,09,21,00,00,11.80
2011,09,21,00,01,11.80
2011,09,21,00,02,11.80
2011,09,21,00,03,11.70
2011,09,21,00,04,11.70
2011,09,21,00,05,11.70
2011,09,21,00,06,11.60
2011,09,21,00,07,11.60
2011,09,21,00,08,11.60
2011,09,21,00,09,11.60
2011,09,21,00,10,11.60
2011,09,21,00,11,11.60
2011,09,21,00,12,11.60
2011,09,21,00,13,11.50
2011,09,21,00,14,11.40
2011,09,21,00,15,11.40
2011,09,21,00,16,11.40
2011,09,21,00,17,11.40
2011,09,21,00,18,11.40
2011,09,21,00,19,11.40
2011,09,21,00,20,11.40
2011,09,21,00,21,11.40
2011,09,21,00,22,11.40
2011,09,21,00,23,11.30
2011,09,21,00,24,11.30
2011,09,21,00,25,11.30
2011,09,21,00,26,11.30
2011,09,21,00,27,11.30
2011,09,21,00,28,11.30
2011,09,21,00,29,11.20
2011,09,21,00,30,11.20
2011,09,21,00,31,11.20
2011,09,21,00,32,11.20
2011,09,21,00,33,11.20
2011,09,21,00,34,11.20
2011,09,21,00,35,11.20
2011,09,21,00,36,11.20
2011,09,21,00,37,11.20
2011,09,21,00,38,11.20
2011,09,21,00,39,11.10
2011,09,21,00,40,11.10
2011,09,21,00,41,11.10
2011,09,21,00,42,11.10
2011,09,21,00,43,11.10
2011,09,21,00,44,11.10
2011,09,21,00,45,11.10
2011,09,21,00,46,11.10
2011,09,21,00,47,11.10
2011,09,21,00,48,11.10
2011,09,21,00,49,11.10
2011,09,21,00,50,11.00
2011,09,21,00,51,10.90
2011,09,21,00,52,10.90
2011,09,21,00,53,10.90
2011,09,21,00,54,10.90
2011,09,21,00,55,10.90
2011,09,21,00,56,10.90
2011,09,21,00,57,10.90
2011,09,21,00,58,10.90
2011,09,21,00,59,10.90
2011,09,21,01,00,10.90
2011,09,21,01,01,10.90
2011,09,21,01,02,10.90
2011,09,21,01,03,10.90
2011,09,21,01,04,10.90
2011,09,21,01,05,10.90
2011,09,21,01,06,10.90
2011,09,21,01,07,11.00
2011,09,21,01,08,11.10
2011,09,21,01,09,11.10
2011,09,21,01,10,11.10
2011,09,21,01,11,11.10
2011,09,21,01,12,11.10
2011,09,21,01,13,11.10
2011,09,21,01,14,11.10
2011,09,21,01,15,11.10
2011,09,21,01,16,11.10
2011,09,21,01,17,11.10
2011,09,21,01,18,11.10
2011,09,21,01,19,11.10
2011,09,21,01,20,11.10
2011,09,21,01,21,11.10
2011,09,21,01,22,11.10
2011,09,21,01,23,11.10
2011,09,21,01,24,11.10
2011,09,21,01,25,11.10
2011,09,21,01,26,11.10
2011,09,21,01,27,11.10
2011,09,21,01,28,11.10
2011,09,21,01,29,11.10
2011,09,21,01,30,11.10
2011,09,21,01,31,11.10
2011,09,21,01,32,11.10
2011,09,21,01,33,11.10
2011,09,21,01,34,11.10
2011,09,21,01,35,11.10
2011,09,21,01,36,11.10
2011,09,21,01,37,11.10
2011,09,21,01,38,11.10
2011,09,21,01,39,11.10
2011,09,21,01,40,11.10
2011,09,21,01,41,11.10
2011,09,21,01,42,11.10
2011,09,21,01,43,11.20
2011,09,21,01,44,11.20
2011,09,21,01,45,11.20
2011,09,21,01,46,11.20
2011,09,21,01,47,11.20
2011,09,21,01,48,11.20
2011,09,21,01,49,11.20
2011,09,21,01,50,11.20
2011,09,21,01,51,11.20
2011,09,21,01,52,11.20
2011,09,21,01,53,11.20
2011,09,21,01,54,11.20
2011,09,21,01,55,11.20
2011,09,21,01,56,11.20
2011,09,21,01,57,11.20
2011,09,21,01,58,11.20
2011,09,21,01,59,11.20
2011,09,21,02,00,11.20
2011,09,21,02,01,11.30
2011,09,21,02,02,11.30
2011,09,21,02,03,11.30
2011,09,21,02,04,11.30
2011,09,21,02,05,11.30
2011,09,21,02,06,11.30
2011,09,21,02,07,11.30
2011,09,21,02,08,11.30
2011,09,21,02,09,11.40
2011,09,21,02,10,11.40
2011,09,21,02,11,11.40
2011,09,21,02,12,11.40
2011,09,21,02,13,11.40
2011,09,21,02,14,11.40
2011,09,21,02,15,11.40
2011,09,21,02,16,11.40
2011,09,21,02,17,11.40
2011,09,21,02,18,11.40
2011,09,21,02,19,11.40
2011,09,21,02,20,11.40
2011,09,21,02,21,11.40
2011,09,21,02,22,11.40
2011,09,21,02,23,11.40
2011,09,21,02,24,11.40
2011,09,21,02,25,11.40
2011,09,21,02,26,11.40
2011,09,21,02,27,11.40
2011,09,21,02,28,11.50
2011,09,21,02,29,11.60
2011,09,21,02,30,11.60
2011,09,21,02,31,11.60
2011,09,21,02,32,11.60
2011,09,21,02,33,11.60
2011,09,21,02,34,11.60
2011,09,21,02,35,11.60
2011,09,21,02,36,11.60
2011,09,21,02,37,11.60
2011,09,21,02,38,11.60
2011,09,21,02,39,11.70
2011,09,21,02,40,11.70
2011,09,21,02,41,11.70
2011,09,21,02,42,11.80
2011,09,21,02,43,11.80
2011,09,21,02,44,11.80
2011,09,21,02,45,11.90
2011,09,21,02,46,11.90
2011,09,21,02,47,12.00
2011,09,21,02,48,12.00
2011,09,21,02,49,12.10
2011,09,21,02,50,12.10
2011,09,21,02,51,12.10
2011,09,21,02,52,12.20
2011,09,21,02,53,12.20
2011,09,21,02,54,12.20
2011,09,21,02,55,12.20
2011,09,21,02,56,12.20
2011,09,21,02,57,12.20
2011,09,21,02,58,12.20
2011,09,21,02,59,12.20
2011,09,21,03,00,12.20
2011,09,21,03,01,12.20
2011,09,21,03,02,12.20
2011,09,21,03,03,12.20
2011,09,21,03,04,12.30
2011,09,21,03,05,12.30
2011,09,21,03,06,12.30
2011,09,21,03,07,12.30
2011,09,21,03,08,12.30
2011,09,21,03,09,12.30
2011,09,21,03,10,12.30
2011,09,21,03,11,12.30
2011,09,21,03,12,12.30
2011,09,21,03,13,12.30
2011,09,21,03,14,12.30
2011,09,21,03,15,12.30
2011,09,21,03,16,12.30
2011,09,21,03,17,12.30
2011,09,21,03,18,12.30
2011,09,21,03,19,12.30
2011,09,21,03,20,12.30
2011,09,21,03,21,12.30
2011,09,21,03,22,12.30
2011,09,21,03,23,12.30
2011,09,21,03,24,12.30
2011,09,21,03,25,12.30
2011,09,21,03,26,12.30
2011,09,21,03,27,12.30
2011,09,21,03,28,12.30
2011,09,21,03,29,12.30
2011,09,21,03,30,12.30
2011,09,21,03,31,12.30
2011,09,21,03,32,12.30
2011,09,21,03,33,12.30
2011,09,21,03,34,12.30
2011,09,21,03,35,12.30
2011,09,21,03,36,12.30
2011,09,21,03,37,12.30
2011,09,21,03,38,12.30
2011,09,21,03,39,12.30
2011,09,21,03,40,12.30
2011,09,21,03,41,12.30
2011,09,21,03,42,12.30
2011,09,21,03,43,12.30
2011,09,21,03,44,12.30
2011,09,21,03,45,12.30
2011,09,21,03,46,12.30
2011,09,21,03,47,12.30
2011,09,21,03,48,12.30
2011,09,21,03,49,12.30
2011,09,21,03,50,12.30
2011,09,21,03,51,12.30
2011,09,21,03,52,12.30
2011,09,21,03,53,12.30
2011,09,21,03,54,12.30
2011,09,21,03,55,12.30
2011,09,21,03,56,12.20
2011,09,21,03,57,12.20
2011,09,21,03,58,12.20
2011,09,21,03,59,12.10
2011,09,21,04,00,12.10
2011,09,21,04,01,12.10
2011,09,21,04,02,12.00
2011,09,21,04,03,12.00
2011,09,21,04,04,12.00
2011,09,21,04,05,12.00
2011,09,21,04,06,12.00
2011,09,21,04,07,11.90
2011,09,21,04,08,11.90
2011,09,21,04,09,11.90
2011,09,21,04,10,11.90
2011,09,21,04,11,11.80
2011,09,21,04,12,11.80
2011,09,21,04,13,11.80
2011,09,21,04,14,11.80
2011,09,21,04,15,11.80
2011,09,21,04,16,11.80
2011,09,21,04,17,11.80
2011,09,21,04,18,11.70
2011,09,21,04,19,11.70
2011,09,21,04,20,11.70
2011,09,21,04,21,11.70
2011,09,21,04,22,11.70
2011,09,21,04,23,11.60
2011,09,21,04,24,11.60
2011,09,21,04,25,11.60
2011,09,21,04,26,11.60
2011,09,21,04,27,11.60
2011,09,21,04,28,11.60
2011,09,21,04,29,11.60
2011,09,21,04,30,11.60
2011,09,21,04,31,11.60
2011,09,21,04,32,11.60
2011,09,21,04,33,11.60
2011,09,21,04,34,11.60
2011,09,21,04,35,11.60
2011,09,21,04,36,11.60
2011,09,21,04,37,11.60
2011,09,21,04,38,11.60
2011,09,21,04,39,11.60
2011,09,21,04,40,11.60
2011,09,21,04,41,11.70
2011,09,21,04,42,11.70
2011,09,21,04,43,11.70
2011,09,21,04,44,11.70
2011,09,21,04,45,11.70
2011,09,21,04,46,11.70
2011,09,21,04,47,11.70
2011,09,21,04,48,11.80
2011,09,21,04,49,11.80
2011,09,21,04,50,11.80
2011,09,21,04,51,11.80
2011,09,21,04,52,11.80
2011,09,21,04,53,11.80
2011,09,21,04,54,11.80
2011,09,21,04,55,11.90
2011,09,21,04,56,12.00
2011,09,21,04,57,12.00
2011,09,21,04,58,12.10
2011,09,21,04,59,12.20
2011,09,21,05,00,12.30
2011,09,21,05,01,12.30
2011,09,21,05,02,12.40
2011,09,21,05,03,12.50
2011,09,21,05,04,12.60
2011,09,21,05,05,12.70
2011,09,21,05,06,12.80
2011,09,21,05,07,12.90
2011,09,21,05,08,13.00
2011,09,21,05,09,13.10
2011,09,21,05,10,13.20
2011,09,21,05,11,13.30
2011,09,21,05,12,13.30
2011,09,21,05,13,13.30
2011,09,21,05,14,13.40
2011,09,21,05,15,13.40
2011,09,21,05,16,13.50
2011,09,21,05,17,13.50
2011,09,21,05,18,13.60
2011,09,21,05,19,13.60
2011,09,21,05,20,13.70
2011,09,21,05,21,13.70
2011,09,21,05,22,13.70
2011,09,21,05,23,13.70
2011,09,21,05,24,13.70
2011,09,21,05,25,13.70
2011,09,21,05,26,13.70
2011,09,21,05,27,13.70
2011,09,21,05,28,13.70
2011,09,21,05,29,13.70
2011,09,21,05,30,13.70
2011,09,21,05,31,13.70
2011,09,21,05,32,13.60
2011,09,21,05,33,13.60
2011,09,21,05,34,13.60
2011,09,21,05,35,13.60
2011,09,21,05,36,13.60
2011,09,21,05,37,13.50
2011,09,21,05,38,13.50
2011,09,21,05,39,13.40
2011,09,21,05,40,13.30
2011,09,21,05,41,13.30
2011,09,21,05,42,13.30
2011,09,21,05,43,13.20
2011,09,21,05,44,13.20
2011,09,21,05,45,13.10
2011,09,21,05,46,13.10
2011,09,21,05,47,13.00
2011,09,21,05,48,13.00
2011,09,21,05,49,13.00
2011,09,21,05,50,12.90
2011,09,21,05,51,12.90
2011,09,21,05,52,12.80
2011,09,21,05,53,12.80
2011,09,21,05,54,12.80
2011,09,21,05,55,12.80
2011,09,21,05,56,12.80
2011,09,21,05,57,12.80
2011,09,21,05,58,12.70
2011,09,21,05,59,12.70
2011,09,21,06,00,12.70
2011,09,21,06,01,12.70
2011,09,21,06,02,12.70
2011,09,21,06,03,12.60
2011,09,21,06,04,12.60
2011,09,21,06,05,12.60
2011,09,21,06,06,12.60
2011,09,21,06,07,12.50
2011,09,21,06,08,12.50
2011,09,21,06,09,12.50
2011,09,21,06,10,12.50
2011,09,21,06,11,12.50
2011,09,21,06,12,12.40
2011,09,21,06,13,12.40
2011,09,21,06,14,12.40
2011,09,21,06,15,12.40
2011,09,21,06,16,12.40
2011,09,21,06,17,12.40
2011,09,21,06,18,12.40
2011,09,21,06,19,12.30
2011,09,21,06,20,12.30
2011,09,21,06,21,12.30
2011,09,21,06,22,12.30
2011,09,21,06,23,12.30
2011,09,21,06,24,12.30
2011,09,21,06,25,12.30
2011,09,21,06,26,12.30
2011,09,21,06,27,12.30
2011,09,21,06,28,12.30
2011,09,21,06,29,12.30
2011,09,21,06,30,12.30
2011,09,21,06,31,12.30
2011,09,21,06,32,12.30
2011,09,21,06,33,12.30
2011,09,21,06,34,12.30
2011,09,21,06,35,12.20
2011,09,21,06,36,12.20
2011,09,21,06,37,12.20
2011,09,21,06,38,12.20
2011,09,21,06,39,12.20
2011,09,21,06,40,12.20
2011,09,21,06,41,12.30
2011,09,21,06,42,12.30
2011,09,21,06,43,12.30
2011,09,21,06,44,12.30
2011,09,21,06,45,12.20
2011,09,21,06,46,12.20
2011,09,21,06,47,12.20
2011,09,21,06,48,12.20
2011,09,21,06,49,12.20
2011,09,21,06,50,12.20
2011,09,21,06,51,12.20
2011,09,21,06,52,12.20
2011,09,21,06,53,12.20
2011,09,21,06,54,12.20
2011,09,21,06,55,12.20
2011,09,21,06,56,12.20
2011,09,21,06,57,12.20
2011,09,21,06,58,12.20
2011,09,21,06,59,12.20
2011,09,21,07,00,12.20
2011,09,21,07,01,12.20
2011,09,21,07,02,12.20
2011,09,21,07,03,12.20
2011,09,21,07,04,12.20
2011,09,21,07,05,12.30
2011,09,21,07,06,12.30
2011,09,21,07,07,12.30
2011,09,21,07,08,12.30
2011,09,21,07,09,12.30
2011,09,21,07,10,12.30
2011,09,21,07,11,12.30
2011,09,21,07,12,12.30
2011,09,21,07,13,12.30
2011,09,21,07,14,12.40
2011,09,21,07,15,12.40
2011,09,21,07,16,12.40
2011,09,21,07,17,12.40
2011,09,21,07,18,12.40
2011,09,21,07,19,12.40
2011,09,21,07,20,12.40
2011,09,21,07,21,12.40
2011,09,21,07,22,12.40
2011,09,21,07,23,12.40
2011,09,21,07,24,12.40
2011,09,21,07,25,12.40
2011,09,21,07,26,12.40
2011,09,21,07,27,12.40
2011,09,21,07,28,12.40
2011,09,21,07,29,12.50
2011,09,21,07,30,12.50
2011,09,21,07,31,12.50
2011,09,21,07,32,12.50
2011,09,21,07,33,12.50
2011,09,21,07,34,12.60
2011,09,21,07,35,12.60
2011,09,21,07,36,12.60
2011,09,21,07,37,12.70
2011,09,21,07,38,12.70
2011,09,21,07,39,12.70
2011,09,21,07,40,12.70
2011,09,21,07,41,12.80
2011,09,21,07,42,12.80
2011,09,21,07,43,12.80
2011,09,21,07,44,12.90
2011,09,21,07,45,12.90
2011,09,21,07,46,13.00
2011,09,21,07,47,13.00
2011,09,21,07,48,13.00
2011,09,21,07,49,13.10
2011,09,21,07,50,13.10
2011,09,21,07,51,13.10
2011,09,21,07,52,13.10
2011,09,21,07,53,13.10
2011,09,21,07,54,13.20
2011,09,21,07,55,13.20
2011,09,21,07,56,13.20
2011,09,21,07,57,13.30
2011,09,21,07,58,13.30
2011,09,21,07,59,13.30
2011,09,21,08,00,13.30
2011,09,21,08,01,13.40
2011,09,21,08,02,13.50
2011,09,21,08,03,13.50
2011,09,21,08,04,13.50
2011,09,21,08,05,13.60
2011,09,21,08,06,13.60
2011,09,21,08,07,13.70
2011,09,21,08,08,13.70
2011,09,21,08,09,13.70
2011,09,21,08,10,13.80
2011,09,21,08,11,13.80
2011,09,21,08,12,13.90
2011,09,21,08,13,13.90
2011,09,21,08,14,13.90
2011,09,21,08,15,13.90
2011,09,21,08,16,14.00
2011,09,21,08,17,14.00
2011,09,21,08,18,14.00
2011,09,21,08,19,14.00
2011,09,21,08,20,14.00
2011,09,21,08,21,14.10
2011,09,21,08,22,14.10
2011,09,21,08,23,14.10
2011,09,21,08,24,14.10
2011,09,21,08,25,14.10
2011,09,21,08,26,14.20
2011,09,21,08,27,14.20
2011,09,21,08,28,14.20
2011,09,21,08,29,14.20
2011,09,21,08,30,14.20
2011,09,21,08,31,14.20
2011,09,21,08,32,14.30
2011,09,21,08,33,14.40
2011,09,21,08,34,14.40
2011,09,21,08,35,14.40
2011,09,21,08,36,14.50
2011,09,21,08,37,14.50
2011,09,21,08,38,14.50
2011,09,21,08,39,14.50
2011,09,21,08,40,14.60
2011,09,21,08,41,14.60
2011,09,21,08,42,14.60
2011,09,21,08,43,14.70
2011,09,21,08,44,14.70
2011,09,21,08,45,14.70
2011,09,21,08,46,14.80
2011,09,21,08,47,14.80
2011,09,21,08,48,14.80
2011,09,21,08,49,14.80
2011,09,21,08,50,14.90
2011,09,21,08,51,14.90
2011,09,21,08,52,15.00
2011,09,21,08,53,15.00
2011,09,21,08,54,15.00
2011,09,21,08,55,15.10
2011,09,21,08,56,15.10
2011,09,21,08,57,15.10
2011,09,21,08,58,15.10
2011,09,21,08,59,15.20
2011,09,21,09,00,15.20
2011,09,21,09,01,15.20
2011,09,21,09,02,15.20
2011,09,21,09,03,15.20
2011,09,21,09,04,15.30
2011,09,21,09,05,15.30
2011,09,21,09,06,15.30
2011,09,21,09,07,15.30
2011,09,21,09,08,15.30
2011,09,21,09,09,15.30
2011,09,21,09,10,15.30
2011,09,21,09,11,15.30
2011,09,21,09,12,15.30
2011,09,21,09,13,15.30
2011,09,21,09,14,15.40
2011,09,21,09,15,15.40
2011,09,21,09,16,15.40
2011,09,21,09,17,15.50
2011,09,21,09,18,15.50
2011,09,21,09,19,15.50
2011,09,21,09,20,15.50
2011,09,21,09,21,15.60
2011,09,21,09,22,15.60
2011,09,21,09,23,15.60
2011,09,21,09,24,15.60
2011,09,21,09,25,15.70
2011,09,21,09,26,15.70
2011,09,21,09,27,15.70
2011,09,21,09,28,15.70
2011,09,21,09,29,15.70
2011,09,21,09,30,15.80
2011,09,21,09,31,15.80
2011,09,21,09,32,15.80
2011,09,21,09,33,15.80
2011,09,21,09,34,15.80
2011,09,21,09,35,15.80
2011,09,21,09,36,15.80
2011,09,21,09,37,15.80
2011,09,21,09,38,15.80
2011,09,21,09,39,15.80
2011,09,21,09,40,15.80
2011,09,21,09,41,15.80
2011,09,21,09,42,15.80
2011,09,21,09,43,15.80
2011,09,21,09,44,15.80
2011,09,21,09,45,15.80
2011,09,21,09,46,15.80
2011,09,21,09,47,15.80
2011,09,21,09,48,15.80
2011,09,21,09,49,15.80
2011,09,21,09,50,15.80
2011,09,21,09,51,15.80
2011,09,21,09,52,15.80
2011,09,21,09,53,15.80
2011,09,21,09,54,15.90
2011,09,21,09,55,15.90
2011,09,21,09,56,15.90
2011,09,21,09,57,15.90
2011,09,21,09,58,16.00
2011,09,21,09,59,16.10
2011,09,21,10,00,16.10
2011,09,21,10,01,16.10
2011,09,21,10,02,16.10
2011,09,21,10,03,16.10
2011,09,21,10,04,16.10
2011,09,21,10,05,16.20
2011,09,21,10,06,16.20
2011,09,21,10,07,16.20
2011,09,21,10,08,16.30
2011,09,21,10,09,16.30
2011,09,21,10,10,16.30
2011,09,21,10,11,16.40
2011,09,21,10,12,16.40
2011,09,21,10,13,16.40
2011,09,21,10,14,16.40
2011,09,21,10,15,16.40
2011,09,21,10,16,16.40
2011,09,21,10,17,16.50
2011,09,21,10,18,16.60
2011,09,21,10,19,16.60
2011,09,21,10,20,16.70
2011,09,21,10,21,16.70
2011,09,21,10,22,16.70
2011,09,21,10,23,16.70
2011,09,21,10,24,16.70
2011,09,21,10,25,16.70
2011,09,21,10,26,16.70
2011,09,21,10,27,16.70
2011,09,21,10,28,16.70
2011,09,21,10,29,16.70
2011,09,21,10,30,16.70
2011,09,21,10,31,16.70
2011,09,21,10,32,16.70
2011,09,21,10,33,16.70
2011,09,21,10,34,16.70
2011,09,21,10,35,16.80
2011,09,21,10,36,16.80
2011,09,21,10,37,16.80
2011,09,21,10,38,16.90
2011,09,21,10,39,16.90
2011,09,21,10,40,16.90
2011,09,21,10,41,17.00
2011,09,21,10,42,17.00
2011,09,21,10,43,17.00
2011,09,21,10,44,17.00
2011,09,21,10,45,17.10
2011,09,21,10,46,17.10
2011,09,21,10,47,17.10
2011,09,21,10,48,17.20
2011,09,21,10,49,17.20
2011,09,21,10,50,17.30
2011,09,21,10,51,17.30
2011,09,21,10,52,17.30
2011,09,21,10,53,17.30
2011,09,21,10,54,17.30
2011,09,21,10,55,17.30
2011,09,21,10,56,17.30
2011,09,21,10,57,17.30
2011,09,21,10,58,17.40
2011,09,21,10,59,17.40
2011,09,21,11,00,17.40
2011,09,21,11,01,17.50
2011,09,21,11,02,17.50
2011,09,21,11,03,17.50
2011,09,21,11,04,17.70
2011,09,21,11,05,17.70
2011,09,21,11,06,17.70
2011,09,21,11,07,17.80
2011,09,21,11,08,17.90
2011,09,21,11,09,17.90
2011,09,21,11,10,18.10
2011,09,21,11,11,18.10
2011,09,21,11,12,18.10
2011,09,21,11,13,18.10
2011,09,21,11,14,18.20
2011,09,21,11,15,18.20
2011,09,21,11,16,18.30
2011,09,21,11,17,18.30
2011,09,21,11,18,18.40
2011,09,21,11,19,18.50
2011,09,21,11,20,18.60
2011,09,21,11,21,18.70
2011,09,21,11,22,18.90
2011,09,21,11,23,18.90
2011,09,21,11,24,18.90
2011,09,21,11,25,19.00
2011,09,21,11,26,19.10
2011,09,21,11,27,19.10
2011,09,21,11,28,19.10
2011,09,21,11,29,19.10
2011,09,21,11,30,19.10
2011,09,21,11,31,19.10
2011,09,21,11,32,19.10
2011,09,21,11,33,19.10
2011,09,21,11,34,19.10
2011,09,21,11,35,19.10
2011,09,21,11,36,19.20
2011,09,21,11,37,19.20
2011,09,21,11,38,19.30
2011,09,21,11,39,19.30
2011,09,21,11,40,19.40
2011,09,21,11,41,19.50
2011,09,21,11,42,19.60
2011,09,21,11,43,19.70
2011,09,21,11,44,19.70
2011,09,21,11,45,19.80
2011,09,21,11,46,19.90
2011,09,21,11,47,19.90
2011,09,21,11,48,20.00
2011,09,21,11,49,20.10
2011,09,21,11,50,20.10
2011,09,21,11,51,20.20
2011,09,21,11,52,20.20
2011,09,21,11,53,20.20
2011,09,21,11,54,20.20
2011,09,21,11,55,20.30
2011,09,21,11,56,20.40
2011,09,21,11,57,20.40
2011,09,21,11,58,20.40
2011,09,21,11,59,20.50
2011,09,21,12,00,20.50
2011,09,21,12,01,20.60
2011,09,21,12,02,20.60
2011,09,21,12,03,20.60
2011,09,21,12,04,20.60
2011,09,21,12,05,20.60
2011,09,21,12,06,20.60
2011,09,21,12,07,20.70
2011,09,21,12,08,20.80
2011,09,21,12,09,20.90
2011,09,21,12,10,21.00
2011,09,21,12,11,21.10
2011,09,21,12,12,21.10
2011,09,21,12,13,21.10
2011,09,21,12,14,21.10
2011,09,21,12,15,21.10
2011,09,21,12,16,21.10
2011,09,21,12,17,21.20
2011,09,21,12,18,21.20
2011,09,21,12,19,21.20
2011,09,21,12,20,21.20
2011,09,21,12,21,21.20
2011,09,21,12,22,21.30
2011,09,21,12,23,21.30
2011,09,21,12,24,21.30
2011,09,21,12,25,21.30
2011,09,21,12,26,21.30
2011,09,21,12,27,21.40
2011,09,21,12,28,21.40
2011,09,21,12,29,21.40
2011,09,21,12,30,21.50
2011,09,21,12,31,21.60
2011,09,21,12,32,21.60
2011,09,21,12,33,21.60
2011,09,21,12,34,21.60
2011,09,21,12,35,21.60
2011,09,21,12,36,21.60
2011,09,21,12,37,21.60
2011,09,21,12,38,21.60
2011,09,21,12,39,21.60
2011,09,21,12,40,21.60
2011,09,21,12,41,21.60
2011,09,21,12,42,21.60
2011,09,21,12,43,21.60
2011,09,21,12,44,21.60
2011,09,21,12,45,21.60
2011,09,21,12,46,21.60
2011,09,21,12,47,21.60
2011,09,21,12,48,21.60
2011,09,21,12,49,21.50
2011,09,21,12,50,21.40
2011,09,21,12,51,21.40
2011,09,21,12,52,21.30
2011,09,21,12,53,21.30
2011,09,21,12,54,21.30
2011,09,21,12,55,21.20
2011,09,21,12,56,21.20
2011,09,21,12,57,21.10
2011,09,21,12,58,21.10
2011,09,21,12,59,21.00
2011,09,21,13,00,21.00
2011,09,21,13,01,20.90
2011,09,21,13,02,20.90
2011,09,21,13,03,20.80
2011,09,21,13,04,20.80
2011,09,21,13,05,20.70
2011,09,21,13,06,20.70
2011,09,21,13,07,20.60
2011,09,21,13,08,20.60
2011,09,21,13,09,20.60
2011,09,21,13,10,20.50
2011,09,21,13,11,20.50
2011,09,21,13,12,20.50
2011,09,21,13,13,20.50
2011,09,21,13,14,20.50
2011,09,21,13,15,20.40
2011,09,21,13,16,20.40
2011,09,21,13,17,20.30
2011,09,21,13,18,20.30
2011,09,21,13,19,20.20
2011,09,21,13,20,20.20
2011,09,21,13,21,20.20
2011,09,21,13,22,20.20
2011,09,21,13,23,20.20
2011,09,21,13,24,20.20
2011,09,21,13,25,20.10
2011,09,21,13,26,20.10
2011,09,21,13,27,20.00
2011,09,21,13,28,19.90
2011,09,21,13,29,19.90
2011,09,21,13,30,19.90
2011,09,21,13,31,19.90
2011,09,21,13,32,19.90
2011,09,21,13,33,19.80
2011,09,21,13,34,19.70
2011,09,21,13,35,19.70
2011,09,21,13,36,19.60
2011,09,21,13,37,19.50
2011,09,21,13,38,19.50
2011,09,21,13,39,19.40
2011,09,21,13,40,19.30
2011,09,21,13,41,19.30
2011,09,21,13,42,19.20
2011,09,21,13,43,19.10
2011,09,21,13,44,19.10
2011,09,21,13,45,19.10
2011,09,21,13,46,19.10
2011,09,21,13,47,19.10
2011,09,21,13,48,19.00
2011,09,21,13,49,18.90
2011,09,21,13,50,18.90
2011,09,21,13,51,18.90
2011,09,21,13,52,18.90
2011,09,21,13,53,18.90
2011,09,21,13,54,18.90
2011,09,21,13,55,18.90
2011,09,21,13,56,18.90
2011,09,21,13,57,18.90
2011,09,21,13,58,18.90
2011,09,21,13,59,18.90
2011,09,21,14,00,18.90
2011,09,21,14,01,18.90
2011,09,21,14,02,18.80
2011,09,21,14,03,18.80
2011,09,21,14,04,18.80
2011,09,21,14,05,18.80
2011,09,21,14,06,18.70
2011,09,21,14,07,18.70
2011,09,21,14,08,18.70
2011,09,21,14,09,18.70
2011,09,21,14,10,18.70
2011,09,21,14,11,18.70
2011,09,21,14,12,18.70
2011,09,21,14,13,18.70
2011,09,21,14,14,18.70
2011,09,21,14,15,18.60
2011,09,21,14,16,18.60
2011,09,21,14,17,18.50
2011,09,21,14,18,18.40
2011,09,21,14,19,18.30
2011,09,21,14,20,18.20
2011,09,21,14,21,18.20
2011,09,21,14,22,18.20
2011,09,21,14,23,18.20
2011,09,21,14,24,18.20
2011,09,21,14,25,18.20
2011,09,21,14,26,18.20
2011,09,21,14,27,18.20
2011,09,21,14,28,18.20
2011,09,21,14,29,18.20
2011,09,21,14,30,18.20
2011,09,21,14,31,18.20
2011,09,21,14,32,18.20
2011,09,21,14,33,18.20
2011,09,21,14,34,18.20
2011,09,21,14,35,18.20
2011,09,21,14,36,18.20
2011,09,21,14,37,18.20
2011,09,21,14,38,18.30
2011,09,21,14,39,18.30
2011,09,21,14,40,18.30
2011,09,21,14,41,18.30
2011,09,21,14,42,18.30
2011,09,21,14,43,18.30
2011,09,21,14,44,18.30
2011,09,21,14,45,18.30
2011,09,21,14,46,18.30
2011,09,21,14,47,18.40
2011,09,21,14,48,18.50
2011,09,21,14,49,18.50
2011,09,21,14,50,18.70
2011,09,21,14,51,18.80
2011,09,21,14,52,18.90
2011,09,21,14,53,19.00
2011,09,21,14,54,19.10
2011,09,21,14,55,19.20
2011,09,21,14,56,19.30
2011,09,21,14,57,19.30
2011,09,21,14,58,19.40
2011,09,21,14,59,19.50
2011,09,21,15,00,19.50
2011,09,21,15,01,19.60
2011,09,21,15,02,19.60
2011,09,21,15,03,19.70
2011,09,21,15,04,19.80
2011,09,21,15,05,19.80
2011,09,21,15,06,19.90
2011,09,21,15,07,19.90
2011,09,21,15,08,19.90
2011,09,21,15,09,19.90
2011,09,21,15,10,19.80
2011,09,21,15,11,19.90
2011,09,21,15,12,19.90
2011,09,21,15,13,19.90
2011,09,21,15,14,19.90
2011,09,21,15,15,19.90
2011,09,21,15,16,19.90
2011,09,21,15,17,20.10
2011,09,21,15,18,20.10
2011,09,21,15,19,20.20
2011,09,21,15,20,20.20
2011,09,21,15,21,20.30
2011,09,21,15,22,20.40
2011,09,21,15,23,20.50
2011,09,21,15,24,20.50
2011,09,21,15,25,20.60
2011,09,21,15,26,20.70
2011,09,21,15,27,20.70
2011,09,21,15,28,20.70
2011,09,21,15,29,20.80
2011,09,21,15,30,20.80
2011,09,21,15,31,20.80
2011,09,21,15,32,20.90
2011,09,21,15,33,20.90
2011,09,21,15,34,20.90
2011,09,21,15,35,20.90
2011,09,21,15,36,21.00
2011,09,21,15,37,21.00
2011,09,21,15,38,21.00
2011,09,21,15,39,21.00
2011,09,21,15,40,20.90
2011,09,21,15,41,20.90
2011,09,21,15,42,20.90
2011,09,21,15,43,20.90
2011,09,21,15,44,20.90
2011,09,21,15,45,20.90
2011,09,21,15,46,20.90
2011,09,21,15,47,20.90
2011,09,21,15,48,20.90
2011,09,21,15,49,20.90
2011,09,21,15,50,20.90
2011,09,21,15,51,20.90
2011,09,21,15,52,20.90
2011,09,21,15,53,20.90
2011,09,21,15,54,20.90
2011,09,21,15,55,20.90
2011,09,21,15,56,20.90
2011,09,21,15,57,20.90
2011,09,21,15,58,20.90
2011,09,21,15,59,20.90
2011,09,21,16,00,20.90
2011,09,21,16,01,20.90
2011,09,21,16,02,20.90
2011,09,21,16,03,20.90
2011,09,21,16,04,20.80
2011,09,21,16,05,20.80
2011,09,21,16,06,20.70
2011,09,21,16,07,20.60
2011,09,21,16,08,20.60
2011,09,21,16,09,20.50
2011,09,21,16,10,20.40
2011,09,21,16,11,20.40
2011,09,21,16,12,20.30
2011,09,21,16,13,20.20
2011,09,21,16,14,20.20
2011,09,21,16,15,20.10
2011,09,21,16,16,20.10
2011,09,21,16,17,19.90
2011,09,21,16,18,19.90
2011,09,21,16,19,19.90
2011,09,21,16,20,19.90
2011,09,21,16,21,19.80
2011,09,21,16,22,19.80
2011,09,21,16,23,19.70
2011,09,21,16,24,19.70
2011,09,21,16,25,19.60
2011,09,21,16,26,19.50
2011,09,21,16,27,19.40
2011,09,21,16,28,19.40
2011,09,21,16,29,19.30
2011,09,21,16,30,19.20
2011,09,21,16,31,19.10
2011,09,21,16,32,19.10
2011,09,21,16,33,19.00
2011,09,21,16,34,18.90
2011,09,21,16,35,18.90
2011,09,21,16,36,18.90
2011,09,21,16,37,18.90
2011,09,21,16,38,18.80
2011,09,21,16,39,18.70
2011,09,21,16,40,18.70
2011,09,21,16,41,18.60
2011,09,21,16,42,18.60
2011,09,21,16,43,18.60
2011,09,21,16,44,18.60
2011,09,21,16,45,18.50
2011,09,21,16,46,18.50
2011,09,21,16,47,18.40
2011,09,21,16,48,18.40
2011,09,21,16,49,18.30
2011,09,21,16,50,18.20
2011,09,21,16,51,18.20
2011,09,21,16,52,18.20
2011,09,21,16,53,18.10
2011,09,21,16,54,18.10
2011,09,21,16,55,18.00
2011,09,21,16,56,17.90
2011,09,21,16,57,17.90
2011,09,21,16,58,17.80
2011,09,21,16,59,17.70
2011,09,21,17,00,17.60
2011,09,21,17,01,17.60
2011,09,21,17,02,17.50
2011,09,21,17,03,17.50
2011,09,21,17,04,17.40
2011,09,21,17,05,17.40
2011,09,21,17,06,17.40
2011,09,21,17,07,17.30
2011,09,21,17,08,17.30
2011,09,21,17,09,17.30
2011,09,21,17,10,17.30
2011,09,21,17,11,17.30
2011,09,21,17,12,17.30
2011,09,21,17,13,17.30
2011,09,21,17,14,17.20
2011,09,21,17,15,17.20
2011,09,21,17,16,17.20
2011,09,21,17,17,17.20
2011,09,21,17,18,17.10
2011,09,21,17,19,17.10